www.pogodaiklimat.ru

Погода и климат >> Архив погоды >> Кука Острова >> Rarotonga


ПОГОДА в Rarotonga

  • Прогноз погоды в Rarotonga
  • Монитор погоды в Rarotonga
  • Климат города

АРХИВ ПОГОДЫ в Rarotonga

Время (UTC), дата Ветер
(напр.,м/с)
 
Видим.   Явления Облачность Т
(С)
Тd
(С)
f
(%)
Тe
(С)
Тes
(С)
Комфортность P
(гПа)
Po
(гПа)
Тmin
(С)
Tmax
(С)
R
(мм)
R24
(мм)
S
(см)
21 16.07 Ю 2 50 км 4/4 750 м
[Cu Sc]
+23.1 +12.5 51 +26 +32 жарко 1019.9 1020.0
00 17.07 Ю 5 50 км 3/3 600 м
[Cu hum]
+23.5 +13.3 53 +29 +33 душно 1017.9 1018.0 +21.0
03 17.07 Ю 5 50 км 3/3 700 м
[Cu hum]
+22.5 +13.8 58 +26 +26 жарко 1017.4 1017.0
06 17.07 Ю 3 50 км 3/3 630 м
[Cu hum]
+20.1 +11.0 56 +22 +22 комфорт 1018.7 1019.0
09 17.07 Ю 2 50 км 3/3 630 м
[Cu hum]
+19.0 +11.8 63 +21 +21 комфорт 1019.7 1020.0
12 17.07 Ю 3 50 км 3/3 700 м
[Cu hum]
+19.9 +9.9 52 +22 +22 комфорт 1019.1 1019.0 +24.1
15 17.07 Ю 4 20 км 4/4 630 м
[Cu Sc]
+20.7 +10.7 53 +23 +23 комфорт 1018.6 1019.0
18 17.07 Ю 4 20 км 4/4 800 м
[Cu hum]
+19.5 +10.3 55 +21 +21 комфорт 1020.4 1020.0
21 17.07 ЮВ 4 20 км 6/6 750 м
[Cu med, cong]
+23.0 +11.5 48 +25 +28 комфорт 1021.1 1021.0
00 18.07 ЮВ 5 20 км 6/6 600 м
[Cu med, cong]
+22.6 +12.1 51 +25 +28 комфорт 1019.3 1019.0 +17.3
03 18.07 ЮВ 3 50 км 6/4 700 м
[Cu hum Ac trans]
+22.0 +12.2 54 +24 +25 комфорт 1018.8 1019.0
06 18.07 ЮВ 2 20 км слабая морось 6/4 540 м
[Cu med, cong Ac trans]
+20.8 +14.3 66 +24 +24 комфорт 1020.8 1021.0
09 18.07 ЮВ 3 20 км {морось} 4/4 630 м
[Cu hum]
+19.8 +12.0 61 +22 +22 комфорт 1021.1 1021.0
12 18.07 ЮВ 1 20 км 6/6 540 м
[Cu Sc]
+20.6 +12.7 61 +24 +24 комфорт 1020.7 1021.0 +24.2
15 18.07 ЮВ 3 20 км 8/8 540 м
[Cu Sc]
+20.5 +14.9 70 +24 +24 комфорт 1020.1 1020.0
18 18.07 ЮВ 4 20 км 8/8 700 м
[Cu med, cong]
+21.4 +15.0 67 +25 +25 комфорт 1021.9 1022.0
21 18.07 ЮВ 7 20 км 4/4 700 м
[Cu Sc]
+24.0 +13.7 53 +26 +28 жарко 1022.7 1023.0
00 19.07 В 6 20 км осадки на расстоянии 8/8 600 м
[Cu med, cong]
+23.9 +14.9 57 +27 +28 жарко 1020.7 1021.0 +18.0
03 19.07 В 5 20 км 8/5 700 м
[Cu med, cong Ac trans]
+23.0 +13.8 56 +26 +27 жарко 1020.3 1020.0
06 19.07 ЮВ 4 20 км 4/4 700 м
[Cu Sc]
+21.7 +15.4 67 +25 +25 комфорт 1022.1 1022.0
09 19.07 ЮВ 4 20 км 4/4 700 м
[Cu Sc]
+21.7 +15.4 67 +25 +25 комфорт 1022.1 1022.0
12 19.07 ЮВ 3 20 км {ливн. осадки} 5/5 540 м
[Cu Sc]
+21.5 +17.8 79 +26 +26 душно 1021.2 1021.0 +25.1
15 19.07 ЮВ 3 20 км 5/5 540 м
[Cu Sc]
+21.4 +17.9 80 +26 +26 душно 1020.7 1021.0
18 19.07 В 5 20 км слабый ливневой дождь 9/5 360 м
[Cu med, cong Ac As]
+21.1 +19.4 90 +26 +26 душно 1022.2 1022.0 11
21 19.07 В 7 20 км осадки на расстоянии 5/5 600 м
[Cu med, cong]
+25.0 +19.0 69 +30 +32 душно 1022.8 1023.0
00 20.07 В 8 20 км осадки на расстоянии {ливн. осадки} 5/5 600 м
[Cu med, cong Ci sp]
+26.0 +19.1 66 +31 +32 очень
душно
1021.1 1021.0 +19.9 0.8
03 20.07 В 7 20 км 5/5 600 м
[Cu med, cong Ci fib]
+24.5 +18.9 71 +29 +30 душно 1020.7 1021.0
09 20.07 ЮВ 8 20 км 8/8 630 м
[Sc diur, vesp]
+23.2 +18.3 74 +29 +29 душно 1022.5 1023.0
12 20.07 В 8 20 км 4/4 450 м
[Cu med, cong]
+23.1 +18.9 77 +29 +29 очень
душно
1021.0 1021.0 +26.4
15 20.07 ЮВ 7 20 км {ливн. осадки} 8/8 450 м
[Cu Sc]
+23.0 +19.3 80 +29 +29 очень
душно
1020.9 1021.0
18 20.07 В 6 20 км {ливн. осадки} 6/6 450 м
[Cu med, cong]
+23.0 +19.8 82 +30 +30 очень
душно
1021.9 1022.0 0.4
21 20.07 В 7 20 км 5/5 450 м
[Cu med, cong]
+25.1 +19.9 73 +31 +32 очень
душно
1023.1 1023.0
00 21.07 В 7 50 км 5/5 300 м
[Cu med, cong]
+25.6 +20.3 73 +32 +33 очень
душно
1021.4 1021.0 +19.6
03 21.07 В 6 50 км 4/4 540 м
[Cu med, cong]
+25.2 +20.0 73 +31 +31 очень
душно
1020.4 1020.0
06 21.07 ЮВ 4 20 км 4/4 480 м
[Cu med, cong]
+23.5 +19.6 79 +29 +29 душно 1021.1 1021.0
09 21.07 В 5 20 км 4/4 540 м
[Cu med, cong]
+23.5 +19.6 79 +29 +29 душно 1021.9 1022.0
12 21.07 В 5 20 км 5/5 480 м
[Cu med, cong]
+23.2 +19.2 78 +30 +30 очень
душно
1021.6 1022.0 +26.6
15 21.07 В 4 20 км 4/4 540 м
[Cu med, cong]
+22.9 +18.5 76 +29 +29 очень
душно
1020.8 1021.0
18 21.07 В 3 50 км 3/3 540 м
[Cu med, cong]
+23.0 +19.1 79 +29 +30 очень
душно
1021.7 1022.0
21 21.07 В 5 50 км 3/3 700 м
[Cu med, cong]
+26.0 +19.2 66 +31 +35 очень
душно
1022.1 1022.0
00 22.07 В 5 50 км 3/3 600 м
[Cu hum]
+26.4 +19.7 67 +32 +36 очень
душно
1019.5 1020.0 +21.6
03 22.07 В 6 50 км 3/3 630 м
[Cu med, cong]
+25.0 +19.5 72 +30 +31 душно 1018.9 1019.0
06 22.07 ЮВ 4 20 км 3/3 600 м
[Cu med, cong]
+23.0 +18.6 76 +29 +29 очень
душно
1019.9 1020.0
09 22.07 ЮВ 6 20 км 4/4 540 м
[Cu med, cong]
+23.0 +18.4 75 +29 +29 очень
душно
1020.1 1020.0
12 22.07 В 5 20 км 3/3 540 м
[Cu hum]
+22.6 +18.7 79 +28 +28 душно 1018.8 1019.0 +26.7
15 22.07 ЮВ 1 50 км 3/3 600 м
[Cu hum]
+20.5 +18.3 87 +26 +26 душно 1017.4 1017.0
21 22.07 В 7 20 км осадки на расстоянии {ливн. осадки} 6/4 150 м
[Sc diur, vesp As op]
+24.0 +21.1 84 +30 +32 очень
душно
1019.0 1019.0
00 23.07 В 5 20 км осадки на расстоянии 8/8 300 м
[Cu med, cong]
+26.0 +21.7 77 +33 +35 очень
душно
1016.5 1017.0 +20.1 0.1
03 23.07 В 5 50 км 3/3 300 м
[Cu hum]
+25.2 +21.9 82 +32 +33 очень
душно
1015.2 1015.0
06 23.07 В 4 20 км 5/5 420 м
[Cu med, cong]
+24.1 +21.7 86 +31 +31 очень
душно
1016.3 1016.0
09 23.07 В 3 20 км {ливн. осадки} 8/8 420 м
[Cu Sc]
+23.5 +22.0 91 +30 +30 очень
душно
1016.9 1017.0
12 23.07 ЮВ 4 20 км {ливн. осадки} 4/4 540 м
[Cu Sc]
+23.0 +21.5 91 +31 +31 очень
душно
1015.2 1015.0 +26.6
15 23.07 В 5 20 км 5/5 540 м
[Cu Sc]
+23.7 +21.6 88 +30 +30 очень
душно
1014.7 1015.0
18 23.07 В 3 20 км 5/5 450 м
[Cu med, cong]
+24.4 +20.0 76 +30 +30 очень
душно
1016.2 1016.0

 

Местоположение метеостанции Rarotonga (Кука Острова): широта -21.20 долгота -159.80 высота над уровнем моря 7 м.

В архиве по умолчанию представлена погода в Rarotonga за последнюю неделю. Архивные данные за месяц целиком и за предыдущие месяцы, начиная с января 2011 года, Вы можете получить, выбрав интересующий диапазон дат из раскрывающегося списка и нажав кнопку "Ввод!".

Внимание! Время в таблицах - всемирное. Для получения местного времени необходимо прибавить поправку, которая в Rarotonga равна -10 ч.

Смотрите также архив погоды в соседних городах и на ближайших метеорологических станциях:

Погода в Aitutaki (Кука Острова) (264 км)
Погода в Bora-Bora Airport (Французская Полинезия) (1004 км)
Погода в Hanan Airport (Кука Острова) (1080 км)
Погода в Tubuai (Французская Полинезия) (1097 км)
Погода в Tahiti-Faaa (Французская Полинезия) (1144 км)
Погода в Manihiki (Кука Острова) (1205 км)
Погода в Penrhyn (Кука Острова) (1367 км)
Погода в Le Mafa (Самоа) (1487 км)
Погода в Lufi-Lufi (Самоа) (1488 км)
Погода в Togitogiga (Самоа) (1498 км)

Пояснения к столбцам:

Ветер - указаны скорость ветра в м/с - средняя за 10 мин, порывы в срок и между сроками (в фигурных скобках) и направление, откуда дует ветер: С - северный, СВ - северо-восточный, В - восточный, ЮВ - юго-восточный, Ю - южный, ЮЗ - юго-западный, З - западный, СЗ - северо-западный.
Видимость - горизонтальная дальность видимости в метрах или километрах. При видимости от 1 до 10 км при отсутствии осадков обычно наблюдается дымка, при ухудшении видимости до 1 км и менее - туман. В сухую погоду видимость может ухудшаться дымом, пылью или мглою.
Явления - указаны атмосферные явления, наблюдавшиеся в срок или в последний час перед сроком; фигурными скобками обозначены явления, наблюдавшиеся между сроками (за 1-3 часа до срока); квадратными скобками обозначены град или гололедные отложения с указанием их диаметра в мм.
Облачность - указаны через наклонную черту общая и нижняя облачность в баллах и высота нижней границы облаков в метрах; квадратными скобками обозначены формы облаков: Ci - перистые, Cs - перисто-слоистые, Cc - перисто-кучевые, Ac - высококучевые, As - высокослоистые, Sc - слоисто-кучевые, Ns - слоисто-дождевые, Cu - кучевые, Cb - кучево-дождевые. Подробнее классификацию облаков см. в Атласе облаков (PDF).
T - Температура воздуха - температура, измеренная на высоте 2 м над землей.
Td - Температура точки росы - температура, при понижении до которой содержащийся в воздухе водяной пар достигнет насыщения.
f - Относительная влажность воздуха - влажноcть воздуха, измеренная на высоте 2 м над землей.
Te - Эффективная температура - температура, которую ощущает одетый по сезону человек в тени. Характеристика душности погоды. При расчете учитывается влияние влажности воздуха и скорости ветра на теплоощущения человека.
Tes - Эффективная температура на солнце - температура, которую ощущает человек, с поправкой на солнечный нагрев. Характеристика знойности погоды. Зависит от высоты солнца над горизонтом, облачности и скорости ветра. Ночью, в пасмурную погоду, а также при ветре 12 м/с и более поправка равна нулю.
P - Атмосферное давление - приведенное к уровню моря атмосферное давление.
Po - Атмосферное давление - измеренное на уровне метеостанции атмосферное давление.
Tmin - Минимальная температура - минимум температуры воздуха на высоте 2 м над землей.
Tmax - Максимальная температура - максимум температуры воздуха на высоте 2 м над землей.
R - Количество осадков - Количество выпавших осадков за период времени, мм. При наведении курсора мыши на число - период времени, за который выпало указанное количество осадков.
R24 - Количество осадков - Количество выпавших осадков за 24 часа, мм.
S - Снежный покров - Высота снежного покрова, см. При наведении курсора мыши на число - состояние снежного покрова и степень покрытия местности в баллах.